Back to catalog

ATLAS 5 CENTAUR DEB

AliveHEO
NORAD 45475·DEBRIS·🇺🇸 United States

Launched Oct 17, 2018 from Cape Canaveral Space Force Station

Loading…

Next Passes (next 24 hours)

TLE

FreshSource: Space-Track

Epoch: Sep 13, 2026, 09:32 UTC

1 45475U 18079BX  26256.39732705 -.00000178  00000-0  00000-0 0  9994
2 45475  13.4469  18.2709 4741954 351.6787   2.5353  1.84723086 46807

Track ATLAS 5 CENTAUR DEB in real time with AllMySat

Download on the App Store